Fort Indiantown Gap, PA

8:18 AM EST on December 13, 2019 (GMT -0500)
Muir Army Air Field

Weather History for KMUI - October, 2019

Change the Weather History Date:

Wednesday, October 9, 2019

  Actual Average Record
Temperature  
Mean Temperature 60 °F -  
Max Temperature 66 °F 64 °F 89 °F (2007)
Min Temperature 54 °F 46 °F 28 °F (2001)
Degree Days  
Heating Degree Days 6    
Growing Degree Days 10 (Base 50)    
Moisture  
Dew Point 44 °F    
Average Humidity 60    
Maximum Humidity 71    
Minimum Humidity 45    
Precipitation  
Precipitation 0.00 in - - ()
Sea Level Pressure  
Sea Level Pressure 30.27 in    
Wind  
Wind Speed 6 mph (ENE)    
Max Wind Speed 10 mph    
Max Gust Speed 18 mph    
Visibility 10 miles    
Events      
Averages and records for this station are not official NWS values.
T = Trace of Precipitation, MM = Missing Value Source: NWS Daily Summary

Daily Weather History Graph

Daily Weather History Graph

Search for Another Location

Airport or City:

Astronomy

Oct. 09, 2019 Rise Set
Actual Time 7:10 AM EDT 6:35 PM EDT
Civil Twilight 6:43 AM EDT 7:03 PM EDT
Nautical Twilight 6:11 AM EDT 7:34 PM EDT
Astronomical Twilight 5:40 AM EDT 8:06 PM EDT
Moon 5:07 PM EDT (10/9) 2:54 AM EDT (10/9)
Length of Visible Light 12h 19m
Length of Day
11h 25m
Waxing Gibbous, 85% of the Moon is Illuminated
Oct 9
Waxing Gibbous
Oct 13
Full
Oct 21
Last Quarter
Oct 27
New
Nov 4
First Quarter

Hourly Weather History & Observations

Time (EDT) Temp. Dew Point Humidity Pressure Visibility Wind Dir Wind Speed Gust Speed Precip Events Conditions
12:56 AM 55.6 °F 45.1 °F 68% 30.25 in 10.0 mi North 3.5 mph - N/A   Overcast
1:56 AM 56.3 °F 43.9 °F 63% 30.26 in 10.0 mi NE 3.5 mph - N/A   Mostly Cloudy
2:56 AM 56.5 °F 44.1 °F 63% 30.24 in 10.0 mi ENE 8.1 mph - N/A   Partly Cloudy
3:56 AM 56.1 °F 44.1 °F 64% 30.24 in 10.0 mi NE 6.9 mph - N/A   Scattered Clouds
4:56 AM 55.8 °F 44.2 °F 65% 30.25 in 10.0 mi NE 5.8 mph - N/A   Overcast
5:56 AM 55.8 °F 43.7 °F 64% 30.26 in 10.0 mi NE 4.6 mph - N/A   Overcast
6:56 AM 55.8 °F 43.7 °F 64% 30.26 in 10.0 mi NNE 8.1 mph - N/A   Overcast
7:56 AM 55.6 °F 43.5 °F 64% 30.27 in 10.0 mi NNE 5.8 mph - N/A   Overcast
8:56 AM 55.9 °F 43.5 °F 63% 30.29 in 10.0 mi NE 4.6 mph - N/A   Overcast
9:56 AM 58.6 °F 43.5 °F 57% 30.30 in 10.0 mi ENE 10.4 mph - N/A   Overcast
10:56 AM 60.4 °F 43.7 °F 54% 30.31 in 10.0 mi ENE 9.2 mph - N/A   Overcast
11:56 AM 63.5 °F 44.6 °F 50% 30.29 in 10.0 mi ENE 4.6 mph - N/A   Clear
1:56 PM 64.9 °F 44.2 °F 47% 30.25 in 10.0 mi East 9.2 mph - N/A   Clear
2:56 PM 65.8 °F 45.0 °F 47% 30.25 in 10.0 mi East 10.4 mph - N/A   Partly Cloudy
3:56 PM 65.7 °F 43.7 °F 45% 30.24 in 10.0 mi East 9.2 mph - N/A   Partly Cloudy
4:56 PM 62.6 °F 44.8 °F 52% 30.24 in 10.0 mi East 9.2 mph 18.4 mph N/A   Partly Cloudy
5:56 PM 59.9 °F 44.6 °F 57% 30.26 in 10.0 mi East 8.1 mph - N/A   Partly Cloudy
6:56 PM 56.1 °F 43.7 °F 63% 30.27 in 10.0 mi ENE 3.5 mph - N/A   Scattered Clouds
7:56 PM 54.9 °F 44.4 °F 68% 30.27 in 10.0 mi North 3.5 mph - N/A   Mostly Cloudy
8:56 PM 54.5 °F 45.3 °F 71% 30.28 in 10.0 mi Calm Calm - N/A   Overcast
9:56 PM 55.8 °F 43.3 °F 63% 30.29 in 10.0 mi ENE 8.1 mph - N/A   Overcast
10:56 PM 55.0 °F 42.3 °F 62% 30.30 in 10.0 mi Calm Calm - N/A   Overcast